GW1307 Weather Reports


time (UTC)temp
C
wind
direction
speed
KPH
gust
KPH
rain 1hr
cm
rain 24hr
cm
rain mn
cm
humidity
%
barometer
mb
20260503220100 18 207 1.6 9.7 0.00 0.00 0.00 54 1011.3
20260503220058 15 196 14.5 19.3 0.00 0.00 0.00 73 1014.2
20260503214601 18 169 0.0 8.0 0.00 0.00 0.00 55 1011.4
20260503214559 15 196 14.5 19.3 0.00 0.00 0.00 73 1014.1
20260503213057 18 169 0.0 4.8 0.00 0.00 0.00 55 1011.3
20260503211556 15 178 12.9 19.3 0.00 0.00 0.00 73 1013.9
20260503211554 17 209 0.0 4.8 0.00 0.00 0.00 56 1011.3
20260503210055 15 173 12.9 17.7 0.00 0.00 0.00 71 1014.0
20260503210052 17 201 0.0 8.0 0.00 0.00 0.00 57 1011.4
20260503204555 15 194 12.9 17.7 0.00 0.00 0.00 73 1014.0
20260503204552 17 172 3.2 14.5 0.00 0.00 0.00 58 1011.6
20260503203105 17 192 1.6 6.4 0.00 0.00 0.00 57 1011.5
20260503203059 15 207 12.9 20.9 0.00 0.00 0.00 76 1014.2
20260503201558 15 182 11.3 20.9 0.00 0.00 0.00 77 1014.3
20260503201550 17 176 0.0 6.4 0.00 0.00 0.00 58 1011.8
20260503200056 15 334 9.7 16.1 0.00 0.00 0.00 79 1014.4
20260503200049 17 169 1.6 8.0 0.00 0.00 0.00 59 1011.7
20260503194616 15 163 11.3 22.5 0.00 0.00 0.00 80 1014.5
20260503194546 17 228 1.6 6.4 0.00 0.00 0.00 59 1011.7
20260503193056 15 158 9.7 19.3 0.00 0.00 0.00 81 1014.4
20260503193046 16 172 0.0 6.4 0.00 0.00 0.00 61 1011.8
20260503191601 14 158 11.3 24.1 0.00 0.00 0.00 79 1014.5
20260503191548 17 202 3.2 8.0 0.00 0.00 0.00 61 1012.0
20260503190058 15 161 12.9 24.1 0.00 0.00 0.00 78 1014.4
20260503190052 17 323 0.0 3.2 0.00 0.00 0.00 60 1012.0
20260503184557 15 121 9.7 20.9 0.00 0.00 0.00 77 1014.3
20260503184541 16 137 1.6 4.8 0.00 0.00 0.00 62 1012.0
20260503183058 15 219 9.7 19.3 0.00 0.00 0.00 78 1014.2
20260503183039 16 215 0.0 8.0 0.00 0.00 0.00 64 1012.1
20260503181606 15 178 9.7 16.1 0.00 0.00 0.00 78 1014.1
20260503181536 16 204 1.6 6.4 0.00 0.00 0.00 65 1012.2
20260503180058 14 185 8.0 12.9 0.00 0.00 0.00 79 1014.2
20260503180036 15 250 3.2 14.5 0.00 0.00 0.00 66 1012.2
20260503174606 14 198 9.7 14.5 0.00 0.00 0.00 77 1014.2
20260503174534 16 63 1.6 6.4 0.00 0.00 0.00 68 1012.2
20260503173101 15 203 9.7 22.5 0.00 0.00 0.00 76 1014.1
20260503173029 15 292 1.6 6.4 0.00 0.00 0.00 67 1012.0
20260503171556 15 138 9.7 14.5 0.00 0.00 0.00 78 1014.1
20260503171527 15 312 3.2 8.0 0.00 0.00 0.00 69 1012.1
20260503170105 13 184 8.0 14.5 0.00 0.00 0.00 78 1014.0
20260503120105 12 200 1.6 4.8 0.00 0.00 0.00 88 1011.7
20260503100104 13 41 0.0 3.2 0.00 0.00 0.00 75 1010.0
20260503081554 12 282 1.6 4.8 0.00 0.00 0.00 83 1012.3
20260503081550 13 34 0.0 1.6 0.00 0.00 0.00 75 1010.7
20260503071557 12 19 6.4 14.5 0.00 0.00 0.00 83 1012.4
20260503071536 13 311 0.0 3.2 0.00 0.00 0.00 75 1011.0
20260503054552 12 25 9.7 20.9 0.00 0.00 0.00 84 1012.4
20260503054550 14 48 0.0 4.8 0.00 0.00 0.00 74 1011.1
20260503053055 12 26 8.0 17.7 0.00 0.00 0.00 84 1012.7
20260503053037 14 28 1.6 3.2 0.00 0.00 0.00 74 1011.2
20260503051555 12 38 12.9 24.1 0.00 0.00 0.00 85 1012.5
20260503051528 14 54 0.0 8.0 0.00 0.00 0.00 73 1011.3
20260503050055 12 17 14.5 22.5 0.00 0.00 0.00 85 1012.7
20260503050028 14 40 0.0 3.2 0.00 0.00 0.00 73 1011.4
20260503044612 12 28 14.5 24.1 0.00 0.00 0.00 86 1012.5
20260503044528 14 24 0.0 4.8 0.00 0.00 0.00 73 1011.3
20260503043100 12 11 14.5 25.7 0.00 0.00 0.00 86 1012.4
20260503043027 14 336 0.0 3.2 0.00 0.00 0.00 73 1011.1
20260503041612 12 13 12.9 20.9 0.00 0.00 0.00 86 1012.2
20260503041527 14 37 0.0 6.4 0.00 0.00 0.00 73 1011.0
20260503040058 12 347 11.3 20.9 0.00 0.00 0.00 85 1011.9
20260503040034 15 15 0.0 4.8 0.00 0.00 0.00 73 1010.8
20260503034603 12 13 11.3 19.3 0.00 0.00 0.00 85 1012.0
20260503034526 15 38 1.6 6.4 0.00 0.00 0.00 72 1010.8
20260503033116 12 32 11.3 20.9 0.00 0.00 0.00 84 1011.8
20260503033029 15 31 1.6 4.8 0.00 0.00 0.00 72 1010.6
20260503031558 12 350 11.3 19.3 0.00 0.00 0.00 84 1011.7
20260503031524 15 44 1.6 4.8 0.00 0.00 0.00 71 1010.6
20260503030105 12 30 8.0 16.1 0.00 0.00 0.00 84 1011.6
20260503030026 15 19 1.6 4.8 0.00 0.00 0.00 71 1010.2
20260503024603 13 40 6.4 11.3 0.00 0.00 0.00 83 1011.5
20260503024522 15 92 0.0 3.2 0.00 0.00 0.00 71 1010.3
20260503023057 13 49 4.8 12.9 0.00 0.00 0.00 82 1011.4
20260503023021 16 35 3.2 12.9 0.00 0.00 0.00 70 1010.0
20260503021609 13 67 3.2 12.9 0.00 0.00 0.00 82 1011.5
20260503021521 16 38 1.6 6.4 0.00 0.00 0.00 69 1009.8
20260503020109 13 38 1.6 12.9 0.00 0.00 0.00 83 1011.5
20260503020021 16 46 3.2 6.4 0.00 0.00 0.00 68 1009.9
20260503014558 13 178 9.7 17.7 0.00 0.00 0.00 83 1011.6
20260503014521 17 34 1.6 9.7 0.00 0.00 0.00 67 1010.0
20260503013058 13 165 12.9 27.4 0.00 0.00 0.00 83 1011.7
20260503013022 17 44 0.0 6.4 0.00 0.00 0.00 65 1009.9
20260503011607 13 186 12.9 25.7 0.00 0.00 0.00 83 1011.7
20260503011523 17 41 0.0 6.4 0.00 0.00 0.00 66 1009.9
20260503010103 13 189 16.1 27.4 0.00 0.00 0.00 82 1011.7
20260503010025 18 59 0.0 4.8 0.00 0.00 0.00 64 1009.9
20260503004600 13 209 19.3 32.2 0.00 0.00 0.00 81 1011.8
20260503004519 18 38 1.6 8.0 0.00 0.00 0.00 63 1009.9
20260503003102 13 183 22.5 33.8 0.00 0.00 0.00 80 1011.8
20260503003020 20 44 3.2 9.7 0.00 0.00 0.00 61 1009.9
20260503001603 13 183 20.9 30.6 0.00 0.00 0.00 79 1012.0
20260503001517 20 57 1.6 9.7 0.00 0.00 0.00 60 1009.9
20260503000057 14 203 20.9 33.8 0.00 0.00 0.00 80 1012.0
20260503000016 20 67 3.2 8.0 0.00 0.00 0.00 59 1009.9
20260502234556 14 201 20.9 37.0 0.00 0.00 0.00 80 1012.1
20260502234524 21 39 1.6 6.4 0.00 0.00 0.00 58 1009.9
20260502233115 21 40 1.6 6.4 0.00 0.00 0.00 57 1009.9
20260502233056 13 187 22.5 30.6 0.00 0.00 0.00 81 1012.2
20260502231558 13 195 20.9 29.0 0.00 0.00 0.00 81 1012.3
20260502231513 21 28 1.6 8.0 0.00 0.00 0.00 57 1009.8
20260502230058 13 190 20.9 29.0 0.00 0.00 0.00 82 1012.7
20260502230012 22 50 1.6 6.4 0.00 0.00 0.00 56 1010.0
20260502224558 14 191 19.3 27.4 0.00 0.00 0.00 81 1013.0
20260502224512 22 19 1.6 4.8 0.00 0.00 0.00 55 1010.0
20260502223101 14 191 17.7 22.5 0.00 0.00 0.00 82 1013.1
20260502223009 22 26 4.8 12.9 0.00 0.00 0.00 57 1010.3
20260502221556 13 196 16.1 20.9 0.00 0.00 0.00 83 1013.6
20260502221507 23 46 1.6 4.8 0.00 0.00 0.00 54 1010.7